Terminal Aerodrome Forecast
Issued by NWS Nashville, TN

Home | Current Version | Previous Version | Text Only | Print | Product List | Glossary On
Versions: 1 2 3 4 5 6 7 8 9 10 11 12 13 14 15 16 17 18 19 20 21 22 23 24 25 26 27 28 29
000
FTUS44 KOHX 292300
TAFCSV
TAF
KCSV 292320Z 3000/3024 36008G16KT P6SM BKN050
     FM300200 34002KT P6SM SKC
      TEMPO 3010/3012 4SM BR
     FM301800 33006KT P6SM SCT250=

USA.gov is the U.S. government's official web portal to all federal, state and local government web resources and services.